• en Suisse
  • Liste des pays
  • À 7 jours
  • Température de l'eau
  • Carte satellitaire
  • Carte météo
  • Widgets météo
  • user-avatar
    Se connecter

    Météo par heure à Parem

    Ce jour, 17 Août, Vendredi

    Heure Température Précipitation Vent Pression Humidité
    00:00 +15°C° 0 mm 2 m/s 762 mmHg 85%
    01:00 +15°C° 0 mm 2 m/s 762 mmHg 86%
    02:00 +15°C° 0 mm 2 m/s 762 mmHg 88%
    03:00 +14°C° 0 mm 2 m/s 762 mmHg 89%
    04:00 +14°C° 0 mm 2 m/s 762 mmHg 89%
    05:00 +14°C° 0 mm 2 m/s 762 mmHg 90%
    06:00 +16°C° 0 mm 3 m/s 762 mmHg 85%
    07:00 +17°C° 0 mm 3 m/s 762 mmHg 79%
    08:00 +19°C° 0 mm 3 m/s 762 mmHg 73%
    09:00 +20°C° 0 mm 3 m/s 762 mmHg 68%
    10:00 +21°C° 0 mm 3 m/s 762 mmHg 63%
    11:00 +24°C° 0 mm 3 m/s 762 mmHg 58%
    12:00 +24°C° 0 mm 3 m/s 762 mmHg 56%
    13:00 +25°C° 0 mm 3 m/s 762 mmHg 55%
    14:00 +25°C° 0 mm 3 m/s 762 mmHg 54%
    15:00 +25°C° 0 mm 3 m/s 761 mmHg 55%
    16:00 +25°C° 0 mm 3 m/s 761 mmHg 57%
    17:00 +25°C° 0 mm 3 m/s 761 mmHg 59%
    18:00 +22°C° 0 mm 3 m/s 761 mmHg 66%
    19:00 +21°C° 0 mm 2 m/s 761 mmHg 74%
    20:00 +19°C° 0 mm 2 m/s 760 mmHg 81%
    21:00 +18°C° 0 mm 2 m/s 760 mmHg 84%
    22:00 +18°C° 0 mm 3 m/s 761 mmHg 86%
    23:00 +17°C° 0 mm 3 m/s 761 mmHg 89%

    Demain, 18 Août, Samedi

    Heure Température Précipitation Vent Pression Humidité
    00:00 +17°C° 0 mm 3 m/s 761 mmHg 90%
    01:00 +17°C° 0 mm 3 m/s 761 mmHg 91%
    02:00 +16°C° 0 mm 3 m/s 760 mmHg 93%
    03:00 +16°C° 0 mm 3 m/s 760 mmHg 93%
    04:00 +16°C° 0 mm 3 m/s 760 mmHg 94%
    05:00 +16°C° 0 mm 3 m/s 760 mmHg 95%
    06:00 +17°C° 0 mm 3 m/s 760 mmHg 89%
    07:00 +19°C° 0 mm 3 m/s 760 mmHg 83%
    08:00 +20°C° 0 mm 3 m/s 760 mmHg 77%
    09:00 +22°C° 0 mm 3 m/s 760 mmHg 73%
    10:00 +24°C° 0 mm 3 m/s 760 mmHg 68%
    11:00 +25°C° 0 mm 4 m/s 760 mmHg 64%
    12:00 +26°C° 0,1 mm 4 m/s 759 mmHg 62%
    13:00 +26°C° 0,1 mm 4 m/s 759 mmHg 60%
    14:00 +27°C° 0,1 mm 4 m/s 759 mmHg 58%
    15:00 +27°C° 0,1 mm 4 m/s 758 mmHg 60%
    16:00 +26°C° 0,1 mm 3 m/s 758 mmHg 62%
    17:00 +26°C° 0,1 mm 3 m/s 758 mmHg 64%
    18:00 +25°C° 0,2 mm 3 m/s 758 mmHg 72%
    19:00 +22°C° 0,2 mm 3 m/s 758 mmHg 80%
    20:00 +20°C° 0,2 mm 3 m/s 758 mmHg 88%
    21:00 +20°C° 0 mm 3 m/s 758 mmHg 90%
    22:00 +19°C° 0 mm 3 m/s 757 mmHg 92%
    23:00 +19°C° 0 mm 3 m/s 757 mmHg 93%

    Après-demain, 19 Août, Dimanche

    Heure Température Précipitation Vent Pression Humidité
    00:00 +18°C° 0 mm 3 m/s 757 mmHg 94%
    01:00 +18°C° 0 mm 3 m/s 757 mmHg 94%
    02:00 +18°C° 0 mm 3 m/s 757 mmHg 95%
    03:00 +18°C° 0 mm 3 m/s 757 mmHg 95%
    04:00 +17°C° 0 mm 3 m/s 757 mmHg 95%
    05:00 +17°C° 0 mm 3 m/s 756 mmHg 96%
    06:00 +18°C° 0 mm 3 m/s 756 mmHg 91%
    07:00 +19°C° 0 mm 4 m/s 756 mmHg 86%
    08:00 +20°C° 0 mm 4 m/s 756 mmHg 81%
    09:00 +21°C° 0 mm 4 m/s 756 mmHg 73%
    10:00 +22°C° 0 mm 5 m/s 756 mmHg 64%
    11:00 +23°C° 0 mm 5 m/s 755 mmHg 55%
    12:00 +22°C° 0,3 mm 5 m/s 755 mmHg 60%
    13:00 +22°C° 0,3 mm 5 m/s 755 mmHg 64%
    14:00 +21°C° 0,3 mm 5 m/s 755 mmHg 69%
    15:00 +20°C° 0,6 mm 5 m/s 755 mmHg 76%
    16:00 +19°C° 0,6 mm 4 m/s 755 mmHg 84%
    17:00 +18°C° 0,6 mm 4 m/s 755 mmHg 91%
    18:00 +18°C° 0,1 mm 4 m/s 756 mmHg 92%
    19:00 +17°C° 0,1 mm 4 m/s 756 mmHg 92%
    20:00 +17°C° 0,1 mm 3 m/s 756 mmHg 93%
    21:00 +16°C° 0 mm 3 m/s 756 mmHg 93%
    22:00 +14°C° 0 mm 3 m/s 756 mmHg 93%
    23:00 +14°C° 0 mm 3 m/s 756 mmHg 93%

    20 Août, Lundi

    Heure Température Précipitation Vent Pression Humidité
    00:00 +13°C° 0 mm 3 m/s 756 mmHg 93%
    01:00 +13°C° 0 mm 3 m/s 756 mmHg 94%
    02:00 +12°C° 0 mm 3 m/s 756 mmHg 95%
    03:00 +12°C° 0 mm 3 m/s 756 mmHg 95%
    04:00 +12°C° 0 mm 3 m/s 756 mmHg 95%
    05:00 +12°C° 0 mm 3 m/s 756 mmHg 95%
    06:00 +14°C° 0 mm 2 m/s 757 mmHg 92%
    07:00 +15°C° 0 mm 2 m/s 757 mmHg 89%
    08:00 +16°C° 0 mm 2 m/s 757 mmHg 85%
    09:00 +18°C° 0 mm 2 m/s 757 mmHg 76%
    10:00 +19°C° 0 mm 2 m/s 757 mmHg 67%
    11:00 +21°C° 0 mm 2 m/s 757 mmHg 57%
    12:00 +21°C° 0,1 mm 2 m/s 757 mmHg 56%
    13:00 +21°C° 0,1 mm 2 m/s 757 mmHg 56%
    14:00 +21°C° 0,1 mm 2 m/s 757 mmHg 55%
    15:00 +21°C° 0,1 mm 2 m/s 757 mmHg 60%
    16:00 +20°C° 0,1 mm 2 m/s 757 mmHg 65%
    17:00 +20°C° 0,1 mm 1 m/s 757 mmHg 70%
    18:00 +19°C° 0 mm 1 m/s 757 mmHg 73%
    19:00 +18°C° 0 mm 1 m/s 757 mmHg 76%
    20:00 +16°C° 0 mm 1 m/s 757 mmHg 79%
    21:00 +16°C° 0 mm 1 m/s 757 mmHg 81%
    22:00 +16°C° 0 mm 1 m/s 757 mmHg 82%
    23:00 +15°C° 0 mm 1 m/s 757 mmHg 83%

    21 Août, Mardi

    Heure Température Précipitation Vent Pression Humidité
    00:00 +15°C° 0 mm 1 m/s 757 mmHg 85%
    01:00 +15°C° 0 mm 1 m/s 758 mmHg 87%
    02:00 +14°C° 0 mm 1 m/s 758 mmHg 89%
    03:00 +14°C° 0 mm 1 m/s 758 mmHg 90%
    04:00 +13°C° 0 mm 1 m/s 758 mmHg 91%
    05:00 +13°C° 0 mm 1 m/s 758 mmHg 92%
    06:00 +14°C° 0 mm 1 m/s 758 mmHg 86%
    07:00 +16°C° 0 mm 1 m/s 758 mmHg 79%
    08:00 +19°C° 0 mm 1 m/s 758 mmHg 72%
    09:00 +20°C° 0 mm 1 m/s 758 mmHg 65%
    10:00 +21°C° 0 mm 1 m/s 758 mmHg 58%
    11:00 +22°C° 0 mm 1 m/s 758 mmHg 50%
    12:00 +21°C° 0 mm 2 m/s 758 mmHg 50%
    13:00 +21°C° 0 mm 2 m/s 758 mmHg 49%
    14:00 +21°C° 0 mm 2 m/s 758 mmHg 49%
    15:00 +21°C° 0 mm 2 m/s 758 mmHg 51%
    16:00 +20°C° 0 mm 2 m/s 758 mmHg 53%
    17:00 +20°C° 0 mm 2 m/s 758 mmHg 55%
    18:00 +18°C° 0 mm 2 m/s 758 mmHg 62%
    19:00 +16°C° 0 mm 1 m/s 758 mmHg 68%
    20:00 +15°C° 0 mm 1 m/s 758 mmHg 74%
    21:00 +14°C° 0 mm 1 m/s 758 mmHg 76%
    22:00 +14°C° 0 mm 1 m/s 758 mmHg 78%
    23:00 +13°C° 0 mm 1 m/s 758 mmHg 80%

    22 Août, Mercredi

    Heure Température Précipitation Vent Pression Humidité
    00:00 +13°C° 0 mm 1 m/s 758 mmHg 81%
    01:00 +12°C° 0 mm 2 m/s 758 mmHg 81%
    02:00 +12°C° 0 mm 2 m/s 758 mmHg 82%
    03:00 +12°C° 0 mm 2 m/s 758 mmHg 81%
    04:00 +13°C° 0 mm 2 m/s 758 mmHg 80%
    05:00 +13°C° 0 mm 2 m/s 758 mmHg 80%
    06:00 +13°C° 0 mm 3 m/s 758 mmHg 77%
    07:00 +14°C° 0 mm 3 m/s 758 mmHg 74%
    08:00 +16°C° 0 mm 3 m/s 758 mmHg 71%
    09:00 +18°C° 0 mm 3 m/s 757 mmHg 67%
    10:00 +20°C° 0 mm 3 m/s 757 mmHg 62%
    11:00 +21°C° 0 mm 4 m/s 757 mmHg 58%
    12:00 +22°C° 0 mm 4 m/s 757 mmHg 56%
    13:00 +23°C° 0 mm 4 m/s 756 mmHg 55%
    14:00 +23°C° 0 mm 4 m/s 756 mmHg 53%
    15:00 +23°C° 0 mm 4 m/s 756 mmHg 56%
    16:00 +23°C° 0 mm 4 m/s 755 mmHg 58%
    17:00 +23°C° 0 mm 4 m/s 755 mmHg 60%
    18:00 +22°C° 0,1 mm 4 m/s 755 mmHg 67%
    19:00 +20°C° 0,1 mm 3 m/s 755 mmHg 74%
    20:00 +19°C° 0,1 mm 3 m/s 754 mmHg 80%
    21:00 +19°C° 0 mm 3 m/s 754 mmHg 82%
    22:00 +18°C° 0 mm 4 m/s 754 mmHg 84%
    23:00 +18°C° 0 mm 4 m/s 754 mmHg 86%
    Voir plus